TimePDT,TemperatureF,Dew PointF,Humidity,Sea Level PressureIn,VisibilityMPH,Wind Direction,Wind SpeedMPH,Gust SpeedMPH,PrecipitationIn,Events,Conditions,WindDirDegrees,DateUTC
12:26 AM,50.0,48.2,94,30.00,3.0,Calm,Calm,-,N/A,,Overcast,0,2012-10-11 07:26:00
12:53 AM,51.1,46.9,86,30.01,3.0,Calm,Calm,-,N/A,,Overcast,0,2012-10-11 07:53:00
1:53 AM,51.1,46.9,86,30.00,4.0,Calm,Calm,-,N/A,,Overcast,0,2012-10-11 08:53:00
2:53 AM,51.1,46.0,83,29.99,4.0,NNW,3.5,-,N/A,,Haze,340,2012-10-11 09:53:00
3:53 AM,51.1,46.0,83,29.99,5.0,North,5.8,-,N/A,,Haze,10,2012-10-11 10:53:00
4:15 AM,50.0,46.4,87,29.98,4.0,North,6.9,-,N/A,,Overcast,10,2012-10-11 11:15:00
4:53 AM,50.0,46.0,86,29.98,4.0,NNE,4.6,-,N/A,,Overcast,20,2012-10-11 11:53:00
5:53 AM,50.0,46.0,86,29.98,4.0,ENE,3.5,-,N/A,,Overcast,60,2012-10-11 12:53:00
6:53 AM,48.9,45.0,86,29.98,4.0,Calm,Calm,-,N/A,,Overcast,0,2012-10-11 13:53:00
7:53 AM,50.0,45.0,83,29.98,4.0,Calm,Calm,-,N/A,,Haze,0,2012-10-11 14:53:00
8:53 AM,50.0,45.0,83,29.98,3.0,Calm,Calm,-,N/A,,Haze,0,2012-10-11 15:53:00
9:53 AM,50.0,45.0,83,29.99,3.0,Variable,3.5,-,N/A,,Haze,0,2012-10-11 16:53:00
10:53 AM,50.0,45.0,83,29.98,3.0,Calm,Calm,-,N/A,,Haze,0,2012-10-11 17:53:00
11:53 AM,51.1,45.0,80,29.97,3.0,NW,3.5,-,N/A,,Haze,320,2012-10-11 18:53:00
12:53 PM,50.0,45.0,83,29.95,3.0,NE,3.5,-,N/A,,Haze,50,2012-10-11 19:53:00
1:53 PM,51.1,45.0,80,29.92,4.0,Calm,Calm,-,N/A,,Haze,0,2012-10-11 20:53:00
2:10 PM,51.8,44.6,76,29.91,4.0,Variable,3.5,-,N/A,,Haze,0,2012-10-11 21:10:00
2:53 PM,55.0,46.0,72,29.89,4.0,Calm,Calm,-,N/A,,Haze,0,2012-10-11 21:53:00
3:53 PM,57.0,46.0,67,29.87,5.0,Calm,Calm,-,N/A,,Haze,0,2012-10-11 22:53:00
4:53 PM,57.0,46.0,67,29.85,5.0,West,4.6,-,N/A,,Haze,270,2012-10-11 23:53:00
4:54 PM,57.0,46.0,67,29.85,5.0,West,4.6,-,N/A,,Haze,270,2012-10-11 23:54:00
5:53 PM,55.9,46.0,69,29.84,5.0,Calm,Calm,-,N/A,,Haze,0,2012-10-12 00:53:00
6:53 PM,54.0,46.0,75,29.83,6.0,Calm,Calm,-,N/A,,Haze,0,2012-10-12 01:53:00
7:53 PM,53.1,46.0,77,29.82,5.0,Calm,Calm,-,N/A,,Haze,0,2012-10-12 02:53:00
8:53 PM,50.0,45.0,83,29.81,5.0,Calm,Calm,-,N/A,,Haze,0,2012-10-12 03:53:00
9:53 PM,48.9,46.0,90,29.83,3.0,West,3.5,-,N/A,,Clear,260,2012-10-12 04:53:00
10:53 PM,48.9,46.0,90,29.83,3.0,WSW,4.6,-,N/A,,Clear,250,2012-10-12 05:53:00
11:15 PM,48.2,46.4,93,29.82,4.0,WSW,3.5,-,N/A,,Scattered Clouds,250,2012-10-12 06:15:00
11:24 PM,48.2,46.4,93,29.83,4.0,WSW,5.8,-,N/A,,Mostly Cloudy,250,2012-10-12 06:24:00
11:53 PM,48.9,46.0,90,29.84,4.0,Variable,4.6,-,N/A,,Overcast,0,2012-10-12 06:53:00